FENGYUN 1C DEB, 29772

Orbit data source: Space-Track

FENGYUN 1C DEB, 29772 is space debris in SSO originally from a launch on Mon, 10 May 1999 UTC launched from the Taiyaun Space Center, China (TSC). Fengyun 1C debris stems from the Chinese weather satellite Fengyun-1C, which was intentionally destroyed by a Chinese anti-satellite missile in 2007. This event dramatically increased the amount of space debris, with thousands of trackable fragments posing hazards to satellites and human spaceflight. The Fengyun 1C debris cloud has become a focal point in discussions about space sustainability and the need for international regulations to prevent the creation of new debris.

Loading next visibility...
Identifier
29772, 1999-025BN
Orbit
SSO
Country
Flag of CNCN / PRC
Related business
Manufacturer
Unknown
Mission
Spacecraft
Bus & Motor
Unknown
Mass
Unknown
Launch date (UTC)
1999-05-10 (27 years ago)
Launch vehicle
Unknown
Launch site
Taiyaun Space Center, China (TSC)
Object type
Payload
Rocket body
Debris
Shape & HBR
Unknown shape, 0.1 m
Radar Cross Section
Small (<0.1 m²)

Expand to show TLE details & history
Last TLE update: 2 days ago

TLE from 2 days ago
0 FENGYUN 1C DEB
1 29772U 99025BN  26256.52204530  .00000970  00000-0  58904-3 0  9999
2 29772  98.3753  89.4589 0134982 231.8406 186.1816 14.04019884   299
Epoch: 2026-09-13T12:31Z
TLE epoch observation values (Epoch: 2026-09-13T12:31:44.713Z)
Latitude
56.99539°
Longitude
-104.02495°
Altitude
986.866 km
Speed
7.314 km/s
True Right ascension
05h 05m 42s
True Declination
56° 50' 35"
Sunlit
Object was in daylight at epoch
Visualization orbit readout
Latitude
Unknown
Longitude
Unknown
Altitude
Unknown
Speed
Unknown
Apparent Right ascension
Unknown
Apparent Declination
Unknown
Sunlit
N/A
Visualization observer readout
Local Sidereal Time
02:14:14
Azimuth
Unknown
Elevation
Unknown
Doppler factor
Unknown
Orbital elements
Apogee altitude
975.004 km
Perigee altitude
779.14 km
Semi-major axis
7,255.209 km
Eccentricity
0.0135
Inclination
98.3753°
RAAN
89.4589°
Arg. of periapsis
231.8406°
True anomaly
186.01779°
Mean anomaly
186.1816°
Eccentric anomaly
186.09942°
Mean motion
3.51211 °/min
Orbital period
102.5 mins
BSTAR
0.00058904
Loading maneuver chart data...
Computing Atmospheric mass density...
Loading historical data...
Loading historical data...
Loading historical data...
Loading historical data...
Loading historical data...
Loading historical data...
Loading historical data...

Documentation

Showing up to 5 results
|